When you browse on this site, cookies collect data to enhance your experience and personalize the content and advertising you see.
Visit our Privacy Policy to learn more. By continuing to use the site, you agree to this use of cookies and data.
  • In Österreich
  • Länderverzeichnis
  • Für 7 Tage
  • Wassertemperatur
  • Satellitenkarten
  • Wetterkarte
  • News
  • Widgets
  • user-avatar
    Anmelden

    Stündliche Wetter Samsonovo

    Heute, 18 Februar, Montag

    Zeit Temperatur Niederschläge Wind Luftdruck Luftfeuchtigkeit
    00:00 -4°C° 0 mm 4 m/S 752 mmHg 81%
    01:00 -5°C° 0 mm 4 m/S 753 mmHg 81%
    02:00 -5°C° 0 mm 3 m/S 754 mmHg 82%
    03:00 -6°C° 0 mm 3 m/S 754 mmHg 83%
    04:00 -6°C° 0 mm 3 m/S 755 mmHg 84%
    05:00 -7°C° 0 mm 3 m/S 755 mmHg 85%
    06:00 -6°C° 0 mm 2 m/S 756 mmHg 86%
    07:00 -6°C° 0 mm 2 m/S 756 mmHg 86%
    08:00 -6°C° 0 mm 2 m/S 757 mmHg 87%
    09:00 -5°C° 0 mm 2 m/S 757 mmHg 83%
    10:00 -4°C° 0 mm 2 m/S 757 mmHg 79%
    11:00 -4°C° 0 mm 2 m/S 758 mmHg 75%
    12:00 -1°C° 0 mm 1 m/S 758 mmHg 72%
    13:00 -1°C° 0 mm 1 m/S 758 mmHg 69%
    14:00 0°C° 0 mm 1 m/S 758 mmHg 65%
    15:00 -1°C° 0 mm 1 m/S 758 mmHg 69%
    16:00 -2°C° 0 mm 1 m/S 758 mmHg 72%
    17:00 -4°C° 0 mm 0 m/S 758 mmHg 76%
    18:00 -3°C° 0 mm 1 m/S 758 mmHg 77%
    19:00 -3°C° 0 mm 1 m/S 758 mmHg 78%
    20:00 -5°C° 0 mm 2 m/S 758 mmHg 79%
    21:00 -5°C° 0 mm 2 m/S 757 mmHg 79%
    22:00 -5°C° 0 mm 2 m/S 757 mmHg 78%
    23:00 -6°C° 0 mm 3 m/S 757 mmHg 78%

    Morgen, 19 Februar, Dienstag

    Zeit Temperatur Niederschläge Wind Luftdruck Luftfeuchtigkeit
    00:00 -6°C° 0 mm 3 m/S 756 mmHg 76%
    01:00 -5°C° 0 mm 3 m/S 756 mmHg 75%
    02:00 -5°C° 0 mm 4 m/S 756 mmHg 73%
    03:00 -5°C° 0 mm 4 m/S 755 mmHg 73%
    04:00 -5°C° 0 mm 4 m/S 754 mmHg 73%
    05:00 -5°C° 0 mm 4 m/S 754 mmHg 72%
    06:00 -5°C° 0 mm 4 m/S 753 mmHg 74%
    07:00 -4°C° 0 mm 4 m/S 753 mmHg 76%
    08:00 -4°C° 0 mm 4 m/S 752 mmHg 78%
    09:00 -4°C° 0 mm 5 m/S 752 mmHg 77%
    10:00 -2°C° 0 mm 5 m/S 751 mmHg 75%
    11:00 -1°C° 0 mm 5 m/S 751 mmHg 74%
    12:00 0°C° 0 mm 5 m/S 750 mmHg 74%
    13:00 0°C° 0 mm 5 m/S 750 mmHg 74%
    14:00 +1°C° 0 mm 5 m/S 749 mmHg 74%
    15:00 0°C° 0 mm 5 m/S 748 mmHg 76%
    16:00 0°C° 0 mm 5 m/S 748 mmHg 79%
    17:00 -1°C° 0 mm 5 m/S 747 mmHg 81%
    18:00 -1°C° 0 mm 5 m/S 747 mmHg 83%
    19:00 -1°C° 0 mm 5 m/S 746 mmHg 85%
    20:00 -1°C° 0 mm 5 m/S 746 mmHg 87%
    21:00 -1°C° 0 mm 5 m/S 745 mmHg 88%
    22:00 -1°C° 0 mm 5 m/S 744 mmHg 89%
    23:00 0°C° 0 mm 4 m/S 744 mmHg 90%

    übermorgen, 20 Februar, Mittwoch

    Zeit Temperatur Niederschläge Wind Luftdruck Luftfeuchtigkeit
    00:00 0°C° 0 mm 4 m/S 743 mmHg 90%
    01:00 0°C° 0 mm 4 m/S 743 mmHg 90%
    02:00 0°C° 0 mm 4 m/S 742 mmHg 90%
    03:00 0°C° 0.3 mm 5 m/S 742 mmHg 90%
    04:00 0°C° 0.3 mm 5 m/S 741 mmHg 90%
    05:00 0°C° 0.3 mm 5 m/S 741 mmHg 89%
    06:00 0°C° 0.2 mm 5 m/S 741 mmHg 90%
    07:00 0°C° 0.2 mm 4 m/S 741 mmHg 91%
    08:00 0°C° 0.2 mm 4 m/S 741 mmHg 92%
    09:00 +1°C° 0.1 mm 4 m/S 741 mmHg 88%
    10:00 +1°C° 0.1 mm 4 m/S 741 mmHg 85%
    11:00 +2°C° 0.1 mm 5 m/S 741 mmHg 81%
    12:00 +1°C° 0.1 mm 5 m/S 741 mmHg 82%
    13:00 +1°C° 0.1 mm 5 m/S 740 mmHg 83%
    14:00 +1°C° 0.1 mm 5 m/S 740 mmHg 84%
    15:00 +1°C° 0.2 mm 5 m/S 740 mmHg 84%
    16:00 +1°C° 0.2 mm 5 m/S 740 mmHg 84%
    17:00 +1°C° 0.2 mm 5 m/S 740 mmHg 85%
    18:00 0°C° 0.1 mm 5 m/S 740 mmHg 81%
    19:00 -1°C° 0.1 mm 5 m/S 740 mmHg 78%
    20:00 -2°C° 0.1 mm 4 m/S 740 mmHg 75%
    21:00 -2°C° 0.1 mm 5 m/S 741 mmHg 76%
    22:00 -4°C° 0.1 mm 5 m/S 741 mmHg 77%
    23:00 -5°C° 0.1 mm 5 m/S 741 mmHg 78%

    21 Februar, Donnerstag

    Zeit Temperatur Niederschläge Wind Luftdruck Luftfeuchtigkeit
    00:00 -5°C° 0.1 mm 5 m/S 741 mmHg 78%
    01:00 -5°C° 0.1 mm 6 m/S 741 mmHg 78%
    02:00 -5°C° 0.1 mm 6 m/S 742 mmHg 78%
    03:00 -5°C° 0.2 mm 6 m/S 742 mmHg 78%
    04:00 -5°C° 0.2 mm 6 m/S 742 mmHg 78%
    05:00 -5°C° 0.2 mm 6 m/S 742 mmHg 79%
    06:00 -5°C° 0.1 mm 6 m/S 743 mmHg 76%
    07:00 -6°C° 0.1 mm 6 m/S 743 mmHg 72%
    08:00 -7°C° 0.1 mm 7 m/S 744 mmHg 69%
    09:00 -7°C° 0.1 mm 7 m/S 745 mmHg 70%
    10:00 -7°C° 0.1 mm 7 m/S 746 mmHg 70%
    11:00 -8°C° 0.1 mm 7 m/S 747 mmHg 70%
    12:00 -8°C° 0.1 mm 7 m/S 748 mmHg 69%
    13:00 -7°C° 0.1 mm 7 m/S 749 mmHg 68%
    14:00 -7°C° 0.1 mm 7 m/S 749 mmHg 67%
    15:00 -8°C° 0 mm 6 m/S 750 mmHg 68%
    16:00 -8°C° 0 mm 6 m/S 751 mmHg 69%
    17:00 -8°C° 0 mm 6 m/S 752 mmHg 70%
    18:00 -9°C° 0 mm 6 m/S 753 mmHg 70%
    19:00 -9°C° 0 mm 6 m/S 754 mmHg 70%
    20:00 -10°C° 0 mm 6 m/S 755 mmHg 71%
    21:00 -10°C° 0 mm 5 m/S 755 mmHg 70%
    22:00 -10°C° 0 mm 5 m/S 756 mmHg 70%
    23:00 -11°C° 0 mm 5 m/S 756 mmHg 70%

    22 Februar, Freitag

    Zeit Temperatur Niederschläge Wind Luftdruck Luftfeuchtigkeit
    00:00 -11°C° 0 mm 5 m/S 757 mmHg 70%
    01:00 -12°C° 0 mm 5 m/S 758 mmHg 71%
    02:00 -12°C° 0 mm 5 m/S 758 mmHg 71%
    03:00 -12°C° 0 mm 5 m/S 759 mmHg 72%
    04:00 -12°C° 0 mm 5 m/S 760 mmHg 73%
    05:00 -13°C° 0 mm 5 m/S 760 mmHg 74%
    06:00 -13°C° 0 mm 5 m/S 761 mmHg 72%
    07:00 -12°C° 0 mm 4 m/S 762 mmHg 70%
    08:00 -12°C° 0 mm 4 m/S 763 mmHg 69%
    09:00 -11°C° 0 mm 4 m/S 764 mmHg 66%
    10:00 -10°C° 0 mm 4 m/S 764 mmHg 63%
    11:00 -9°C° 0 mm 4 m/S 765 mmHg 60%
    12:00 -8°C° 0 mm 4 m/S 765 mmHg 59%
    13:00 -7°C° 0 mm 4 m/S 766 mmHg 58%
    14:00 -7°C° 0 mm 4 m/S 766 mmHg 57%
    15:00 -6°C° 0 mm 3 m/S 766 mmHg 61%
    16:00 -7°C° 0 mm 3 m/S 766 mmHg 65%
    17:00 -6°C° 0 mm 2 m/S 767 mmHg 69%
    18:00 -7°C° 0 mm 2 m/S 767 mmHg 72%
    19:00 -7°C° 0 mm 2 m/S 767 mmHg 75%
    20:00 -8°C° 0 mm 2 m/S 768 mmHg 78%
    21:00 -8°C° 0 mm 2 m/S 768 mmHg 78%
    22:00 -8°C° 0 mm 2 m/S 768 mmHg 78%
    23:00 -8°C° 0 mm 2 m/S 768 mmHg 79%

    23 Februar, Samstag

    Zeit Temperatur Niederschläge Wind Luftdruck Luftfeuchtigkeit
    00:00 -7°C° 0 mm 1 m/S 767 mmHg 78%
    01:00 -7°C° 0 mm 1 m/S 767 mmHg 77%
    02:00 -7°C° 0 mm 1 m/S 766 mmHg 77%
    03:00 -8°C° 0 mm 2 m/S 766 mmHg 74%
    04:00 -7°C° 0 mm 2 m/S 765 mmHg 72%
    05:00 -7°C° 0 mm 2 m/S 764 mmHg 69%
    06:00 -7°C° 0.3 mm 2 m/S 764 mmHg 77%
    07:00 -8°C° 0.3 mm 3 m/S 763 mmHg 85%
    08:00 -8°C° 0.3 mm 3 m/S 762 mmHg 93%
    09:00 -7°C° 0.9 mm 3 m/S 762 mmHg 93%
    10:00 -7°C° 0.9 mm 3 m/S 761 mmHg 93%
    11:00 -6°C° 0.9 mm 3 m/S 760 mmHg 93%
    12:00 -6°C° 0.3 mm 3 m/S 760 mmHg 92%
    13:00 -5°C° 0.3 mm 3 m/S 759 mmHg 92%
    14:00 -4°C° 0.3 mm 3 m/S 759 mmHg 91%
    15:00 -4°C° 0.1 mm 3 m/S 759 mmHg 92%
    16:00 -2°C° 0.1 mm 3 m/S 758 mmHg 92%
    17:00 -2°C° 0.1 mm 2 m/S 758 mmHg 93%
    18:00 -2°C° 0.1 mm 2 m/S 758 mmHg 94%
    19:00 -1°C° 0.1 mm 2 m/S 759 mmHg 95%
    20:00 -1°C° 0.1 mm 2 m/S 759 mmHg 96%
    21:00 -1°C° 0.1 mm 2 m/S 759 mmHg 96%
    22:00 -1°C° 0.1 mm 2 m/S 759 mmHg 97%
    23:00 +1°C° 0.1 mm 2 m/S 759 mmHg 97%
    Mehr zeigen